TIME,DELAY(SENSOR),PRES,T(CTD),SAL,OXYGEN,RAWTEMP,T(OPTODE),TCPHASE,FLUOR,BETA(BETA700),BETA(BETA412),BETA(BETA440),CDOM,C(CSC),ED(ED411.90),ED(ED443.80),ED(ED489.40),ED(ED554.70),LU(LU412.20),LU(LU443.80),LU(LU489.40),LU(LU555.00),COMP,TILTX,TILTX(TILTY),CHECK
1380467158,5808,497.4899902343750000,17.8388004302978500,36.5112991333007800,208.1808013916015600,160.7350006103515600,17.8326492309570300,32.1982307434082000,156,4130,49,51,46,8150,2146961298,2147514742,2147273965,2147449892,2147083346,2146955044,2147652160,2147126299,814,-1,8,7423
1380467285,5800,486.3200073242187500,17.8619003295898440,36.5144004821777340,208.9488067626953000,159.9362030029297000,17.8567600250244140,32.1444587707519500,155,4130,48,51,47,8152,2146962678,2147514797,2147269824,2147446912,2147083648,2146955017,2147652224,2147131364,2851,-1,8,49108
1380467414,5806,474.8399963378906000,17.9522991180419920,36.5280990600585940,209.0034942626953000,156.8430023193359400,17.9501590728759770,32.0988502502441400,155,4130,47,50,46,8149,2146961362,2147515794,2147269668,2147452224,2147085028,2146951360,2147652864,2147128128,1784,-1,8,27230
1380467529,5804,464.6099853515625000,17.9883995056152340,36.5304985046386700,209.8750000000000000,155.7259979248047000,17.9838905334472660,32.0352592468261700,154,4130,48,51,46,8152,2146957824,2147515657,2147270829,2147449563,2147077668,2146955602,2147654281,2147129216,1174,-1,8,13957
1380467658,5808,452.8999938964844000,18.0659008026123050,36.5413017272949200,210.3710021972656200,153.2209014892578000,18.0595493316650400,31.9739303588867200,156,4130,48,52,47,8153,2146961408,2147514614,2147268562,2147451044,2147073462,2146958482,2147650468,2147127542,973,-1,8,7171
1380467773,5803,442.4299926757812500,18.1191997528076170,36.5466995239257800,210.9830932617187500,151.3616943359375000,18.1157093048095700,31.9146709442138670,155,4130,47,51,46,8152,2146959414,2147516205,2147268388,2147448914,2147077348,2146953005,2147651776,2147130057,3389,-1,8,55606
1380467900,5805,430.8299865722656000,18.1788997650146500,36.5503997802734400,212.5565948486328000,149.2678985595703000,18.1789608001709000,31.8003997802734380,156,4130,48,51,47,8153,2146961170,2147515876,2147269440,2147445513,2147081481,2146949504,2147654226,2147128795,2380,-1,8,24690
1380468017,5808,420.1199951171875000,18.2233009338378900,36.5527000427246100,213.7785949707031200,147.9627990722656200,18.2183895111084000,31.7163791656494140,154,4130,46,52,46,8158,2146958326,2147514724,2147268297,2147447762,2147075117,2146957696,2147656283,2147130916,1819,-1,8,49032
1380468132,5807,409.5799865722656000,18.2558994293212900,36.5489997863769500,215.8760986328125000,146.8455963134765600,18.2521400451660160,31.5889396667480470,155,4130,48,52,46,8155,2146961435,2147515154,2147271771,2147448448,2147078125,2146948809,2147650523,2147129389,1291,-1,8,11896
1380468261,5807,397.8699951171875000,18.2908000946044920,36.5505981445312500,218.8863983154297000,145.6159057617187500,18.2893009185791000,31.4136104583740230,155,4130,47,50,45,8157,2146958656,2147511936,2147272420,2147449773,2147079926,2146955904,2147648329,2147127972,601,-1,8,25923
1380468376,5804,387.6300048828125000,18.3365001678466800,36.5519981384277340,221.3984069824218800,144.1408996582031200,18.3338794708251950,31.2629909515380860,155,4130,48,51,47,8161,2146961033,2147514578,2147268562,2147448576,2147076397,2146956946,2147650331,2147131456,2843,-1,8,54093
1380468503,5809,376.3200073242187500,18.3652992248535160,36.5508995056152340,225.5614929199218800,143.2496032714843800,18.3608207702636720,31.0386104583740230,155,4130,49,52,47,8160,2146960960,2147516781,2147268324,2147446043,2147080868,2146961426,2147654500,2147129444,1802,-1,8,36446
1380468632,5807,364.8399963378906000,18.3857002258300780,36.5503005981445300,229.2640075683593800,142.5733947753906200,18.3812503814697270,30.8445701599121100,155,4130,47,51,47,8162,2146963227,2147514395,2147273115,2147444224,2147079579,2146956562,2147651428,2147127506,796,-1,8,23422
1380468747,5807,354.6600036621094000,18.3994998931884770,36.5517005920410160,231.7944946289062500,142.0702056884765600,18.3964691162109380,30.7134094238281250,155,4130,47,52,46,8165,2146958976,2147515062,2147268964,2147446070,2147074304,2146955236,2147652443,2147128713,3434,-1,8,2375
1380468876,5803,343.1300048828125000,18.4246006011962900,36.5530014038085940,232.0520019531250000,141.2743988037109400,18.4205207824707030,30.6901302337646500,155,4130,48,50,47,8164,2146960338,2147513920,2147270226,2147450038,2147072694,2146962468,2147652763,2147130779,3132,-1,8,21966
1380469003,5803,331.9200134277344000,18.4405994415283200,36.5535011291503900,232.0458068847656200,140.7673950195312500,18.4358501434326170,30.6837596893310550,154,4130,49,51,47,8163,2146959049,2147515721,2147269897,2147447890,2147079926,2146957577,2147654473,2147130203,2781,-1,8,45452
1380469130,5809,320.9100036621094000,18.4589004516601560,36.5535011291503900,232.1519012451172000,140.1407012939453000,18.4547901153564450,30.6701602935791000,154,4130,48,51,47,8167,2146960173,2147512768,2147268297,2147448018,2147082322,2146962678,2147659236,2147130678,1685,-1,8,9503
1380469259,5802,309.9200134277344000,18.4855003356933600,36.5539016723632800,230.9486999511718800,139.3179931640625000,18.4796600341796880,30.7178592681884770,155,4130,50,51,46,8166,2146958976,2147515373,2147269906,2147446134,2147078061,2146957138,2147661238,2147127716,1079,-1,8,34945
1380469386,5807,299.4500122070312500,18.5181007385253900,36.5555000305175800,230.8090972900390600,138.1954040527343800,18.5136108398437500,30.7100601196289060,155,4130,48,51,47,8167,2146962953,2147515072,2147274075,2147447689,2147074596,2146960758,2147663222,2147130157,3534,-1,8,53955
1380469527,5809,288.3200073242187500,18.5478992462158200,36.5572013854980500,230.6688995361328000,137.1609954833984400,18.5448799133300780,30.7031993865966800,155,4130,47,51,46,8168,2146961645,2147515200,2147271853,2147446528,2147080694,2146962614,2147661248,2147127469,2684,-1,8,30914
1380469666,5804,277.8099975585937500,18.6054000854492200,36.5607986450195300,230.1251983642578000,135.3110046386718800,18.6008205413818360,30.7051200866699220,155,4130,47,52,46,8168,2146960603,2147517092,2147268443,2147446765,2147078217,2146970880,2147661275,2147129106,1648,-1,8,59686
1380469826,5805,265.8099975585937500,18.6825008392334000,36.5699005126953100,228.3354949951172000,132.6748962402343800,18.6805496215820300,30.7584304809570300,153,4130,47,51,45,8169,2146960612,2147514624,2147270354,2147446125,2147080347,2146963474,2147667684,2147133613,936,-1,8,41700
1380469962,5807,253.7400054931640600,18.7626991271972660,36.5713996887207000,227.3757019042968800,130.0711059570312500,18.7593307495117200,30.7713909149169920,155,4130,49,52,47,8169,2146958774,2147515099,2147273069,2147444928,2147074889,2146972205,2147687634,2147130587,2801,-1,8,7293
1380470077,5805,242.7899932861328000,18.8216991424560550,36.5696983337402340,226.8076019287109400,127.9542007446289000,18.8233795166015620,30.7712707519531250,154,4130,48,50,46,8167,2146959606,2147514569,2147272045,2147447113,2147075693,2146978678,2147699574,2147132187,2467,-1,8,24878
1380470194,5805,231.5000000000000000,18.9659004211425780,36.5793991088867200,226.3648986816406200,122.6325988769531200,18.9844493865966800,30.7227897644042970,153,4130,48,51,46,8164,2146960676,2147514459,2147273426,2147446692,2147072813,2146985426,2147719945,2147132489,1852,-1,8,978
1380470309,5803,220.2299957275390600,19.1854000091552730,36.6002998352050800,223.2825012207031200,116.3039016723632800,19.1760997772216800,30.7939796447753900,154,4130,48,52,46,8167,2146959533,2147514230,2147272393,2147444982,2147084096,2146998610,2147748443,2147134006,1233,-1,8,33853
1380470424,5806,208.8000030517578000,19.3204002380371100,36.6058006286621100,220.0926971435547000,111.5246963500976600,19.3209095001220700,30.8933906555175780,153,4130,48,51,46,8169,2146960722,2147515145,2147272576,2147441993,2147082331,2147020251,2147785051,2147138587,362,-1,8,40569
1380470529,5805,198.3600006103515600,19.4507999420166000,36.6088981628418000,220.3688964843750000,106.8647003173828100,19.4621696472167970,30.8173103332519530,155,4130,48,51,47,8168,2146959652,2147516836,2147276269,2147443904,2147087396,2147047085,2147835620,2147139977,557,-2,8,37362
1380470584,5807,192.9900054931640600,19.5400009155273440,36.6153984069824200,220.6558074951172000,104.0961990356445300,19.5461196899414060,30.7659606933593750,153,4130,47,51,47,8168,2146960374,2147516672,2147274880,2147443346,2147089938,2147060288,2147860891,2147144054,144,-2,8,16632
1380470639,5807,187.6999969482422000,19.6364994049072270,36.6221008300781250,220.0635986328125000,100.7788009643554700,19.6467494964599600,30.7521800994873050,153,4130,48,52,47,8165,2146962358,2147517851,2147276571,2147439862,2147091062,2147078985,2147898459,2147145243,3346,-1,8,56128
1380470694,5803,182.5800018310547000,19.7040996551513670,36.6183013916015600,219.8235015869140600,98.7524566650390600,19.7082290649414060,30.7377204895019530,154,4130,47,51,47,8163,2146961334,2147519341,2147280173,2147437824,2147096274,2147107373,2147941293,2147148068,2855,-1,8,11475
1380470749,5806,177.6600036621093800,19.7952995300292970,36.6217002868652340,220.5646972656250000,96.0416870117187500,19.7905006408691400,30.6640396118164060,152,4130,47,51,46,8161,2146962560,2147520585,2147278372,2147442742,2147103716,2147135908,2147990985,2147153600,2183,-1,8,8522
1380470831,5803,170.7799987792968800,19.8843994140625000,36.6227989196777340,221.3834075927734400,92.8605499267578100,19.8870792388916000,30.5801506042480470,154,4130,47,51,47,8159,2146962249,2147519469,2147280978,2147439350,2147107574,2147178377,2148072320,2147155373,2056,-1,8,51999
1380470886,5808,166.5899963378906200,19.9556999206542970,36.6220016479492200,221.6268005371093800,90.7366333007812500,19.9515895843505860,30.5398006439209000,153,4130,47,51,46,8159,2146962368,2147524105,2147284909,2147440914,2147118802,2147215149,2148134262,2147160237,1675,-1,8,60611
1380470941,5804,162.4700012207031200,20.0879993438720700,36.6306991577148440,222.0175018310547000,86.5262832641601600,20.0795001983642580,30.4645404815673830,154,4130,48,51,46,8156,2146962294,2147524242,2147282642,2147438811,2147130121,2147256630,2148201536,2147164836,1285,-1,8,8915
1380470996,5803,158.3999938964843800,20.2021007537841800,36.6458015441894500,218.9071044921875000,82.3107986450195300,20.2076301574707030,30.5678997039794920,153,4130,49,52,47,8156,2146960804,2147527707,2147285979,2147438537,2147134921,2147292233,2148267291,2147168694,1632,-1,8,64558
1380471051,5805,154.4900054931640600,20.3029994964599600,36.6337013244628900,217.9308013916015600,79.5440826416015600,20.2917594909667970,30.5818805694580080,153,4130,49,51,46,8153,2146960201,2147528649,2147291830,2147437668,2147145956,2147336704,2148344950,2147174738,1134,-2,8,53185
1380471140,5809,148.7100067138672000,20.4990005493164060,36.6305999755859400,219.9029998779297000,73.4351196289062500,20.4776306152343750,30.4006404876709000,153,4130,48,51,47,8153,2146964123,2147530020,2147294098,2147438445,2147169243,2147419072,2148464036,2147182390,198,-1,8,58111
1380471207,5809,145.1799926757812500,20.5084991455078120,36.6315002441406250,222.4149932861328000,72.2907409667968800,20.5124607086181640,30.2580604553222660,153,4130,48,52,47,8150,2146965504,2147528228,2147294738,2147435401,2147183341,2147441408,2148492278,2147186605,242,-1,8,64495
1380471274,5809,141.6699981689453000,20.5699996948242200,36.6347999572753900,224.5301971435547000,70.6483383178711000,20.5624599456787100,30.1309394836425780,153,4130,47,52,47,8150,2146963373,2147528905,2147292077,2147438061,2147190582,2147459181,2148486299,2147186249,73,-1,8,64000
1380471365,5807,137.4600067138672000,20.6639003753662100,36.6304016113281250,225.1851043701172000,67.3469085693359400,20.6630096435546880,30.0552005767822270,153,4130,48,52,45,8152,2146966902,2147536731,2147301522,2147438976,2147241188,2147620809,2148742756,2147207414,3120,-1,8,14541
1380471458,5807,133.7299957275390600,20.7861995697021500,36.6278991699218750,227.5695953369140600,63.4011993408203100,20.7832298278808600,29.8870296478271500,152,4130,49,51,46,8151,2146964562,2147538166,2147311533,2147439149,2147292324,2147789641,2148984329,2147225444,3107,-2,9,26819
1380471561,5808,130.1499938964843800,20.9181003570556640,36.6315002441406250,230.6941986083984400,59.1579895019531250,20.9125900268554700,29.6808204650878900,153,4130,48,52,46,8147,2146967579,2147540973,2147304475,2147438317,2147304054,2147772864,2148910692,2147221686,2682,-1,9,5349
1380471700,5807,126.0599975585937500,21.1194000244140620,36.6297988891601560,230.6201019287109400,52.9712295532226560,21.1013393402099600,29.6047000885009770,153,4130,48,51,46,8147,2146970249,2147540544,2147307483,2147436443,2147332260,2147802596,2148904777,2147222308,2805,-2,9,7889
1380471832,5804,121.6699981689453100,21.2600994110107420,36.6249008178710940,233.6791992187500000,48.0751914978027340,21.2508296966552730,29.3967208862304700,153,4130,48,52,46,8143,2146969993,2147546688,2147317933,2147435510,2147418413,2148000795,2149173714,2147243867,2833,-2,8,15050
1380471923,5800,117.9400024414062500,21.3827991485595700,36.6246986389160160,236.4864044189453000,44.0024108886718750,21.3752708435058600,29.2131595611572270,153,4130,47,51,46,8146,2146971026,2147548653,2147318619,2147435465,2147471917,2148075419,2149223058,2147250532,2481,-1,9,57863
1380472038,5807,113.8000030517578100,21.5457000732421880,36.6220016479492200,238.4691009521484400,38.9061393737793000,21.5310897827148440,29.0571308135986330,153,4130,48,51,46,8146,2146975460,2147552073,2147325659,2147433462,2147578349,2148272045,2149451373,2147273526,2535,-2,9,16274
1380472152,5807,109.7600021362304700,21.8425998687744140,36.6234016418457000,242.1027984619140600,29.3731994628906250,21.8228893280029300,28.7713699340820300,151,4130,47,52,47,8145,2146982400,2147566208,2147340068,2147436470,2147765302,2148653421,2149920548,2147314221,2807,-1,8,41372
1380472255,5805,106.0999984741211000,22.0303001403808600,36.6150016784668000,246.4216003417968800,23.0308609008789060,22.0172805786132800,28.4999408721923830,152,4130,47,51,47,8140,2146988772,2147574244,2147353234,2147432658,2147945892,2148967177,2150283337,2147350793,3219,-1,8,29937
1380472427,5805,100.5599975585937500,22.2961006164550780,36.6012992858886700,252.6268005371093800,14.0677499771118160,22.2923507690429700,28.1196098327636720,154,4130,48,52,45,8135,2147007314,2147599332,2147386971,2147435986,2148427565,2149792585,2151224109,2147439360,2680,-1,9,23338
1380472482,5807,98.4100036621093800,22.5415000915527340,36.5946006774902340,255.3164062500000000,6.9109888076782230,22.5123004913330080,27.9174709320068360,152,4130,48,51,46,8125,2147009837,2147597906,2147384347,2147434468,2148478774,2149779867,2151118811,2147433572,2907,-1,9,25523
1380472539,5805,96.7900009155273400,22.6107997894287100,36.5896987915039060,257.7403869628906000,4.3003501892089840,22.5925998687744140,27.7839603424072270,153,4130,49,50,47,8126,2147011529,2147598080,2147380982,2147431698,2148535716,2149789558,2151056356,2147437586,2759,-1,9,50888
1380472606,5810,95.2399978637695300,22.7220001220703120,36.5878982543945300,259.5155944824219000,0.9791492819786072,22.6948204040527340,27.6699409484863280,153,4130,47,52,46,8123,2147016694,2147605028,2147384640,2147430957,2148691245,2149988406,2151229577,2147454793,2587,-1,9,4517
1380472730,5807,92.6299972534179700,23.0688991546630860,36.5774002075195300,265.2110900878906000,-10.3410596847534180,23.0436897277832030,27.3007297515869140,152,4130,48,51,46,8123,2147036013,2147631305,2147414528,2147432265,2149193426,2150729481,2151992347,2147534464,2677,-1,9,2622
1380472787,5807,90.9199981689453100,23.2451000213623050,36.5788002014160160,266.7341003417969000,-16.0526008605957030,23.2199993133544920,27.1706504821777340,152,4130,48,51,46,8124,2147048365,2147647195,2147431616,2147433700,2149530834,2151205942,2152447094,2147579081,2490,-2,9,7550
1380472854,5810,89.1699981689453100,23.3288993835449220,36.5598983764648440,269.2609863281250000,-19.0474796295166000,23.3125305175781250,27.0346107482910160,152,4130,47,53,47,8115,2147058349,2147654893,2147439488,2147433472,2149780416,2151493120,2152640758,2147604553,2750,-1,8,19213
1380472933,5804,87.5500030517578100,23.5048007965087900,36.5525016784668000,273.7867126464844000,-24.4092006683349600,23.4783191680908200,26.7945995330810550,152,4130,48,52,47,8117,2147070592,2147670418,2147458121,2147432530,2150153270,2152001508,2153110957,2147658459,3096,-2,8,24304
1380473033,5805,85.7399978637695300,23.7595005035400400,36.5621986389160160,276.6648864746094000,-32.0232810974121100,23.7140808105468750,26.5933303833007800,153,4130,48,51,46,8114,2147099785,2147707684,2147496493,2147434368,2150958884,2153180854,2154306313,2147775670,2021,-2,9,61242
1380473090,5807,84.0699996948242200,23.8882007598876950,36.5751991271972660,277.0329895019531000,-37.1541709899902340,23.8731594085693360,26.5180091857910160,153,4130,47,51,47,8114,2147119588,2147733540,2147521536,2147435913,2151496640,2153833280,2154880649,2147839634,1557,-1,8,9735
1380473157,5806,82.3099975585937500,24.0356006622314450,36.5647010803222660,282.3930053710937500,-41.7582206726074200,24.0160503387451170,26.2631492614746100,152,4130,48,52,46,8122,2147157394,2147776722,2147569088,2147438518,2152440256,2155116626,2156097170,2147968393,1266,-1,9,42471
1380473248,5806,80.4700012207031200,24.1501007080078120,36.5433006286621100,300.2943115234375000,-45.1610488891601560,24.1217594146728500,25.5865497589111330,151,4130,48,51,46,8123,2147177700,2147798829,2147596187,2147438262,2153054838,2155805467,2156580992,2148025974,383,-1,8,45747
1380473349,5805,78.2799987792968800,24.3631992340087900,36.5186004638671900,310.6062011718750000,-52.0604286193847660,24.3363208770751950,25.1590404510498050,150,4130,47,51,46,8119,2147215012,2147836800,2147615579,2147438052,2154018148,2156924891,2157427017,2148115657,2336,-2,9,50839
1380473404,5805,76.9100036621093800,24.5167007446289060,36.5027999877929700,307.9401855468750000,-57.0888481140136700,24.4929199218750000,25.1886501312255860,151,4130,48,51,45,8114,2147240283,2147866477,2147651108,2147443812,2154797933,2157857545,2158247232,2148205860,1414,-2,8,7734
1380473495,5806,75.7099990844726600,24.6504001617431640,36.4942016601562500,321.5661010742187500,-61.2792510986328100,24.6235504150390620,24.6983108520507800,151,4130,48,51,47,8122,2147287232,2147918628,2147713563,2147443794,2156004608,2159413796,2159662125,2148351012,992,-1,9,43008
1380473668,5805,73.0199966430664000,24.8008995056152340,36.4861984252929700,354.3959960937500000,-66.6560134887695300,24.7913494110107420,23.6543693542480470,152,4130,49,51,46,8121,2147469348,2148131675,2147938834,2147457572,2160841920,2165793920,2165517403,2148965147,1119,-2,9,37927
1380473735,5806,71.0999984741211000,25.0491008758544920,36.4600982666015600,364.8915100097656000,-73.0501937866211000,24.9911804199218750,23.2895603179931640,151,4130,48,51,47,8125,2147567616,2148237046,2148043017,2147463817,2163473526,2168979885,2168063963,2149243053,862,-1,8,33482
1380473826,5806,69.5299987792968800,25.1527996063232420,36.4459991455078100,408.1592102050781000,-75.9795684814453100,25.0828399658203120,22.1421604156494140,150,4130,47,52,46,8123,2147578505,2148238729,2148024658,2147462966,2163573778,2168810715,2167635675,2149200813,842,-1,9,11140
1380473975,5806,67.1500015258789000,25.3953990936279300,36.4205017089843750,430.8843994140625000,-85.1670074462890600,25.3707199096679700,21.5061206817626950,150,4130,48,51,46,8117,2147630802,2148274166,2148010340,2147455744,2164711067,2169738998,2167784173,2149228269,2718,-1,9,15426
1380474054,5806,65.4100036621093800,25.5645008087158200,36.4048995971679700,429.4986877441406000,-89.2219772338867200,25.4979896545410160,21.4933605194091800,149,4130,49,52,46,8117,2147673700,2148305801,2148018806,2147459053,2165768612,2170614308,2168116379,2149281069,2631,-1,9,52218
1380474181,5806,63.7799987792968750,25.7609996795654300,36.4031982421875000,462.2398986816406000,-96.5948104858398400,25.7297191619873050,20.6920204162597660,149,4130,47,51,46,8108,2147737307,2148368521,2148087140,2147463597,2167340288,2172285238,2169292891,2149413769,11,-1,8,15901
1380474354,5806,61.4500007629394500,26.2388000488281250,36.3026008605957000,496.7330017089844000,-108.3472976684570300,26.1000308990478500,19.8624591827392580,152,4130,48,51,46,8115,2147965430,2148600402,2148302436,2147478390,2173541860,2179262710,2174716726,2150030281,989,-1,8,14948
1380474623,5806,59.3600006103515600,26.5006008148193360,36.1918983459472660,500.9760131835937500,-120.2356033325195300,26.4758090972900400,19.6521797180175780,150,4130,47,52,46,8133,2148202724,2148824841,2148479716,2147483510,2178959862,2185368027,2179491062,2150583680,1336,-1,9,33856
1380474891,5808,57.3199996948242200,26.5226001739501950,36.1852989196777340,514.6730957031250000,-121.7845001220703100,26.5248603820800780,19.3733901977539060,148,4130,47,51,46,8132,2148070619,2148640932,2148264950,2147469933,2174731602,2178831186,2172873773,2149883968,920,-1,8,21556
1380474982,5805,55.2200012207031250,26.5314006805419920,36.1836013793945300,494.3424987792969000,-122.1856994628906200,26.5375709533691400,19.7609596252441400,149,4130,49,52,47,8134,2148753417,2149334400,2148870217,2147515117,2192387062,2199423936,2189260854,2151710601,1127,-1,9,9338
1380475136,5807,51.3800010681152340,26.5330009460449220,36.1842002868652340,526.1517944335938000,-122.3709030151367200,26.5434398651123050,19.1528491973876950,147,4130,48,51,46,8137,2149542674,2150087652,2149487003,2147583195,2212413915,2220923392,2204447625,2153511826,781,-2,9,49414
1380475202,5806,48.7999992370605500,26.5338993072509770,36.1841011047363300,548.6735839843750000,-122.3912963867187500,26.5440807342529300,18.7457695007324220,148,4130,49,52,47,8134,2150066349,2150555940,2149834523,2147616896,2226287990,2235253339,2214282861,2154689261,569,-2,8,39570
1380475249,5804,46.2999992370605500,26.5377998352050780,36.1836013793945300,553.5485229492188000,-122.4445037841796900,26.5457706451416000,18.6593608856201170,146,4130,47,51,46,8130,2150278674,2150718601,2149913737,2147626340,2232208274,2240274724,2216697636,2155167606,417,-1,8,2036
1380475282,5802,44.4900016784668000,26.5345001220703120,36.1843986511230500,555.1381225585938000,-122.4335021972656200,26.5454196929931640,18.6316699981689450,146,4130,47,52,47,8129,2150488457,2150888027,2150010550,2147634770,2238482294,2246497938,2220277778,2155700653,284,-1,8,16234
1380475315,5807,42.6899986267089840,26.5342998504638670,36.1842002868652340,559.6666259765625000,-122.4160995483398400,26.5448703765869140,18.5530395507812500,144,4130,49,51,45,8126,2150626806,2150989897,2150061504,2147636653,2242553179,2250087268,2222331611,2156118235,197,-2,8,4794
1380475360,5804,40.1800003051757800,26.5352001190185550,36.1837997436523440,563.5117797851562000,-122.4719009399414000,26.5466308593750000,18.4860191345214840,145,4130,47,50,46,8126,2150950107,2151279250,2150301229,2147697243,2253286811,2260454482,2229036086,2157191981,438,-2,8,49202
1380475393,5806,38.3400001525878900,26.5370998382568360,36.1842994689941400,569.3104858398438000,-122.5268020629882800,26.5483703613281250,18.3861503601074220,145,4130,48,51,47,8129,2151140544,2151442806,2150439680,2147744768,2259171163,2265841398,2232481078,2157912822,556,-2,9,37171
1380475426,5807,36.5099983215332000,26.5366992950439450,36.1846008300781250,575.4459838867188000,-122.5665969848632800,26.5496292114257800,18.2817592620849600,144,4130,48,51,47,8130,2151381312,2151632246,2150557220,2147768612,2267498313,2273774070,2237806747,2159117860,472,-1,8,39155
1380475459,5808,34.6599998474121100,26.5393009185791000,36.1845016479492200,583.1658935546875000,-122.6337966918945300,26.5517692565917970,18.1518192291259770,144,4130,49,51,46,8132,2151626742,2151835584,2150704594,2147792018,2273969435,2279817462,2241283437,2159681654,429,-1,8,48227